AirNav   Phillips 66 Aviation Fuel
 
 299 users online  

5AL8 Fairlane Airport
Samson, Alabama, USA

GOING TO SAMSON?


FAA INFORMATION EFFECTIVE 23 MAY 2019

Location

FAA Identifier: 5AL8
Lat/Long: 31-06-18.0000N / 085-59-35.0000W
31-06.300000N / 085-59.583333W
31.1050000 / -85.9930556
(estimated)
Elevation: 225 ft. / 69 m (estimated)
From city: 3 miles E of SAMSON, AL
Time zone: UTC -5 (UTC -6 during Standard Time)
Zip code: 36477

Airport Operations

Airport use: Private use. Permission required prior to landing
Activation date: 03/2004
Control tower: no
ARTCC: JACKSONVILLE CENTER
FSS: ANNISTON FLIGHT SERVICE STATION
Attendance: UNATNDD
Segmented circle: no

Airport Communications

WX AWOS-3PT at EDN (13 nm N): 118.9 (334-347-3524)

Nearby radio navigation aids

VOR radial/distance  VOR name  Freq  Var
EDNr205/(12.4)ENTERPRISE VOR116.6003W
OZRr237/16.9CAIRNS VOR/DME111.2003W
HEYr230/(23.8)HANCHEY VOR110.6003W
RRSr248/30.8WIREGRASS VORTAC111.6002E
CEWr062/39.1CRESTVIEW VORTAC115.9003E

 
NDB name  Hdg/Dist  Freq  Var  ID
RUCKR235/11.621203WOZ --- --..
BOLL WEEVIL185/14.135203WBVG -... ...- --.
LOWE223/20.026903WLOR .-.. --- .-.
JUDD122/23.726402WJUY .--- ..- -.--
HANCHEY230/23.822103WHYE .... -.-- .

Airport Services

Runway Information

Runway 13/31

Dimensions: 2300 x 70 ft. / 701 x 21 m
Surface: turf
Runway edge markings: RY 13/31 MKD WITH CONES 200 FT APART.
RUNWAY 13  RUNWAY 31
Traffic pattern: leftleft

Airport Ownership and Management from official FAA records

Ownership: Privately-owned
Owner: LARRY DELONEY
P.O. BOX 58
WETUMPKA, AL 36092
Phone 334-567-7561
Manager: LARRY DELONEY
P.O. BOX 58
WETUMPKA, AL 36092
Phone 334-567-7561

Airport Operational Statistics

Aircraft based on the field: 1
Single engine airplanes: 1
    

Instrument Procedures

There are no published instrument procedures at 5AL8.

Some nearby airports with instrument procedures:

33J - Geneva Municipal Airport (7 nm SE)
KEDN - Enterprise Municipal Airport (13 nm N)
0J4 - Florala Municipal Airport (17 nm W)
KOZR - Cairns Army Airfield (Fort Rucker) (18 nm NE)
KLOR - Lowe Army Heliport (Fort Rucker) (20 nm NE)
 
Loc | Ops | Rwys | IFR | FBO | Links
Com | Nav | Svcs | Stats | Notes
Area around 5AL8 (Fairlane Airport)
 
Road maps at: MapQuest Bing Google
 
Aerial photo
No photo
 
Sectional chart

 
Airport distance calculator
Flying to Fairlane Airport? Find the distance to fly.

From to 5AL8

Sunrise and sunset
Times for 16-Jun-2019
 Local
(UTC-5)
 Zulu
(UTC)
Morning civil twilight05:1310:13
Sunrise05:4110:41
Sunset19:4800:48
Evening civil twilight20:1601:16

Current date and time
Zulu (UTC)  16-Jun-2019 09:33:07
Local (UTC-5)  16-Jun-2019 04:33:07
 
METAR
KEDN 
13nm N 
160915Z AUTO 00000KT 10SM CLR 21/21 A3001 RMK AO2 T02100210
K0J4 
17nm W 
160858Z AUTO 00000KT 10SM CLR 22/19 A3002 RMK AO2 SLP160 T02170194 56015 $
KSXS 
17nm NE 
160858Z AUTO 00000KT 10SM CLR 22/21 A3000 RMK AO2 SLP157 T02200213 56014 $
KOZR 
18nm NE 
160856Z AUTO 00000KT 10SM CLR 22/21 A3000 RMK AO2 SLP158 T02170210 56015
KLOR 
19nm NE 
160858Z AUTO 00000KT 10SM CLR 21/20 A3000 RMK AO2 SLP140 T02050203 56014
KHEY 
23nm NE 
160858Z AUTO 00000KT 10SM CLR 21/21 A2999 RMK AO2 SLP155 T02090209 57015
K54J 
24nm S 
160915Z AUTO 00000KT 10SM CLR 22/21 A3001 RMK AO2 T02170208
K79J 
24nm NW 
160856Z AUTO 00000KT 9SM CLR 22/20 A3000 RMK AO2 SLP154 T02220200 $
TAF
NOTAMs
Click for the latest NOTAMs
NOTAMs are issued by the DoD/FAA and will open in a separate window not controlled by AirNav.

 

 
 

Would you like to see your business listed on this page?

 If your business provides an interesting product or service to pilots, flight crews, aircraft, or users of the Fairlane Airport, you should consider listing it here.  To start the listing process, click on the button below
 
Add a business
 

Other Pages about Fairlane Airport

Update a link
 
Copyright © AirNav, LLC. All rights reserved. Privacy Policy  Contact